Tracking 30986 objects as of 9-Jul-2025
HD Live streaming from Space Station
objects crossing your sky now

CZ-6A DEB

Track CZ-6A DEB now!
10-day predictions


NORAD ID: 55007
Int'l Code: 2022-151UX
Perigee: 582.6 km
Apogee: 663.4 km
Inclination: 98.7 °
Period: 97.0 minutes
Semi major axis: 6994 km
RCS: Unknown
Launch date: November 11, 2022
Source: People's Republic of China (PRC)
Launch site: Taiyaun Space Center, China (TSC)

Note: This is SATELLITE DEBRIS
Your satellite tracking list
Your tracking list is empty




NASA's NSSDC Master Catalog

Two Line Element Set (TLE):
1 55007U 22151UX  25190.12130608  .00015691  00000-0  18218-2 0  9990
2 55007  98.6624 245.5742 0057817 232.8559 126.7364 14.84271634139580
Source of the keplerian elements: AFSPC